Temperature
13 13 13 13 13 13 13 13 13 13 13 13 13 14 14 14 14 14 14 14 15 15 14 15 15 15 14 14 14 14 14 14 15 14 14 14 14 14 14 14 14 14 14
13 13 13 13 13 13 13 13 13 13 13 13 13 13 13 14 14 14 14 14 14 14 14 14 14 14 14 14 14 14 15 15 15 15 14 14 14 14 14 14 14 13 13
13 13 13 13 13 13 13 13 13 13 13 13 13 13 13 13 13 14 14 14 14 14 14 14 14 14 14 14 14 14 15 14 14 14 14 14 14 13 13 13 13 13 13
13 13 13 12 13 13 13 13 12 12 12 13 13 13 13 13 13 13 14 14 14 14 14 14 14 14 14 14 14 14 14 14 14 14 14 14 14 13 13 13 13 13 13
13 13 13 12 12 12 12 12 12 12 12 12 13 13 13 13 13 13 13 13 13 13 13 14 14 14 14 14 14 14 14 14 14 14 14 14 14 13 13 13 13 13 13
12 12 12 12 12 12 12 12 12 12 12 12 12 12 12 13 13 13 13 13 13 13 13 13 13 13 14 14 14 14 14 14 14 14 14 14 13 13 13 13 13 12 12
12 12 12 12 12 12 12 12 12 12 12 12 12 12 12 12 12 12 12 13 13 13 13 13 13 13 13 13 13 14 14 14 14 14 14 13 13 13 13 13 12 12 12
12 12 11 11 11 12 11 11 11 11 11 12 12 12 12 12 12 12 12 12 13 13 13 13 13 13 13 13 13 13 13 13 13 13 13 13 13 13 12 12 12 12 12
11 11 11 11 11 11 11 11 11 11 11 11 11 12 12 12 12 12 12 12 12 12 12 12 12 12 12 13 13 13 13 13 13 13 13 13 13 12 12 12 12 12 12
11 11 11 11 11 11 11 11 11 11 11 11 11 11 11 12 12 12 12 12 12 12 12 12 12 12 12 12 12 12 13 12 13 12 12 12 12 12 12 12 12 12 12
10 10 10 10 10 11 11 11 11 11 11 11 11 11 11 11 11 11 11 12 12 12 12 12 12 12 12 12 12 12 12 12 12 12 12 12 12 12 12 12 12 12 12
10 10 10 10 10 10 10 10 10 10 10 10 10 11 11 11 11 11 11 11 11 12 12 12 12 11 11 11 11 12 12 12 12 12 12 12 11 11 11 11 11 11 11
10 9 10 10 9 10 10 10 10 10 10 10 10 10 10 10 10 11 11 11 11 11 11 11 11 11 11 11 11 11 11 11 11 11 11 11 11 11 11 11 11 11 11
9 9 9 9 9 9 9 9 9 9 9 10 10 10 10 10 10 10 10 10 11 11 11 11 11 11 11 11 11 11 11 11 11 11 11 11 11 11 10 10 10 10 11
9 9 9 9 9 9 9 9 9 9 9 9 9 9 9 9 9 10 10 10 10 10 10 10 10 10 10 10 10 10 10 10 10 10 10 10 10 10 10 10 10 10 10
9 9 9 9 8 8 9 8 9 9 9 9 9 9 9 9 9 9 9 10 10 10 10 10 10 10 10 10 10 10 10 10 10 10 10 10 10 10 10 10 10 10 10
9 9 8 8 8 8 8 8 8 8 8 8 8 8 8 8 8 8 9 9 9 9 9 9 9 9 9 9 10 9 9 9 9 9 9 9 9 9 9 10 10 10 10
8 8 8 8 8 8 8 8 8 8 8 8 8 8 8 8 8 8 8 8 9 9 9 9 9 9 9 9 9 9 9 9 9 9 9 9 9 9 9 9 9 9 9
8 8 8 8 8 8 8 7 7 7 7 7 8 7 8 8 8 8 8 8 8 8 8 8 8 8 8 8 8 8 8 8 9 9 9 9 9 8 9 9 9 9 9
8 8 7 7 7 7 7 7 7 7 7 7 7 7 7 7 7 7 7 7 7 7 8 8 8 7 7 8 8 8 8 8 8 8 8 8 8 8 8 8 8 8 8
8 8 7 7 7 7 7 7 7 7 7 7 7 7 7 7 7 7 7 7 7 7 7 7 7 7 7 7 7 7 8 8 8 8 8 8 8 8 8 8 8 8 8
7 7 7 7 7 7 6 6 6 6 6 6 6 6 6 7 7 6 6 6 6 6 6 6 6 6 6 6 6 6 6 7 7 7 7 7 7 7 7 7 7 7 7
7 7 7 6 6 6 6 6 6 6 6 6 6 6 6 6 6 6 6 6 6 6 6 6 6 5 5 5 5 5 5 5 6 6 7 7 7 7 7 7 7 7 7
6 6 6 6 6 6 5 5 5 5 5 5 5 5 5 6 6 6 6 6 5 5 5 5 5 5 5 5 5 5 5 5 4 5 6 6 6 6 6 6 6 6 6
6 6 6 6 5 5 5 5 5 5 5 5 5 5 5 5 5 5 5 5 5 5 5 5 5 4 4 4 4 4 4 4 4 4 4 5 5 6 6 6 6 6 6
5 5 5 5 5 5 5 4 4 4 4 4 5 5 5 5 5 5 5 5 5 5 4 4 4 4 4 4 4 4 4 4 4 4 4 4 4 5 5 5 5 5 5
Wind_Speed
1 2 2 5 5 6 7 7 8 7 6 7 7 7 7 6 6 6 6 7 7 7 7 7 7 8 8 8 8 8 7 7 7 6 6 6 7 7 7 7 7 6 6
1 1 2 5 6 6 6 7 7 7 6 6 6 6 6 6 6 6 6 6 6 6 7 8 7 7 7 8 8 7 7 6 6 6 6 6 6 6 5 5 5 5 5
2 2 3 5 5 6 6 6 6 7 7 6 5 6 6 6 6 6 6 5 5 6 6 7 7 6 7 7 7 7 6 6 6 5 5 5 4 4 5 5 4 4 4
3 3 3 5 5 5 5 5 5 6 6 6 5 5 5 5 5 6 5 6 5 5 6 5 6 6 6 6 6 6 6 6 6 5 4 4 3 3 3 3 3 3 3
4 4 3 4 5 5 5 5 4 5 5 6 5 4 4 4 4 5 5 5 5 5 5 5 5 5 5 5 5 6 5 6 5 5 4 3 3 2 2 2 2 2 2
3 4 3 4 4 5 5 4 4 4 5 5 5 4 3 3 3 4 4 4 5 5 5 4 4 3 4 4 4 5 6 5 5 5 4 3 2 1 1 1 1 2 1
2 3 3 4 5 4 4 4 4 3 4 4 5 4 3 3 2 3 3 3 4 4 4 4 3 3 3 3 4 4 5 5 5 4 4 3 2 1 1 1 1 1 1
2 3 3 4 4 4 4 5 5 4 4 4 4 4 4 3 3 2 3 3 3 3 4 4 3 3 3 3 3 3 4 4 4 4 4 3 3 2 1 1 1 0 0
3 3 3 3 3 4 4 4 4 4 4 3 4 5 5 4 3 3 2 2 2 3 3 3 3 3 2 3 3 4 4 4 4 3 3 3 3 3 2 2 2 1 1
2 3 3 4 4 4 3 4 4 4 4 4 4 4 5 4 4 4 4 2 2 2 3 3 3 3 2 2 2 3 3 3 3 3 3 3 4 3 2 2 2 1 1
2 2 2 3 3 3 3 3 4 3 4 4 4 4 4 3 3 3 4 3 2 2 2 3 3 4 3 2 2 3 3 3 2 2 3 4 4 3 3 2 2 2 2
2 2 1 1 2 2 2 3 4 3 4 3 3 3 3 3 3 3 3 3 3 3 3 3 3 4 3 2 2 2 2 2 2 2 3 5 4 4 3 3 3 2 2
2 2 1 1 1 1 2 2 2 3 3 3 3 3 3 3 2 3 3 3 3 3 3 3 3 3 2 1 2 2 2 2 2 2 4 5 5 5 4 4 3 3 3
2 3 2 1 1 1 1 1 1 2 2 2 2 2 2 2 2 2 2 3 3 2 2 2 2 3 2 1 1 1 1 1 2 2 4 5 6 6 5 5 4 3 4
3 3 2 1 1 1 0 1 1 1 1 1 2 2 1 1 1 1 2 2 2 2 1 1 2 2 2 1 1 1 1 2 2 2 3 4 5 6 6 6 5 4 4
4 4 3 1 1 1 1 1 1 1 1 1 1 2 2 1 1 0 1 1 2 2 1 1 1 1 1 1 1 1 1 2 2 2 2 3 4 5 6 6 6 5 5
4 3 3 2 1 1 1 1 1 1 1 1 2 3 2 2 2 1 1 1 2 2 1 1 1 1 1 1 1 1 1 1 2 2 2 2 3 5 5 6 6 6 6
3 3 3 2 1 2 2 2 1 2 2 2 2 3 3 3 2 1 1 2 2 1 1 0 0 0 1 2 2 2 1 1 2 2 1 1 2 3 4 6 6 6 6
4 4 3 2 2 2 2 1 2 2 2 2 2 3 3 3 2 1 1 2 2 1 0 1 0 0 1 2 2 2 1 2 2 1 1 1 1 2 3 4 6 6 6
4 3 3 2 2 2 0 0 1 1 1 2 2 3 4 3 2 1 1 2 1 1 1 1 0 0 1 1 2 3 2 2 2 1 2 1 2 2 3 4 4 5 5
2 2 2 2 2 1 0 0 1 2 2 2 2 3 4 3 2 1 1 1 1 1 1 1 1 0 0 1 1 2 2 2 1 1 1 1 1 2 2 3 3 4 4
3 3 3 3 3 3 2 1 1 1 1 2 2 2 3 3 2 2 2 2 2 1 1 1 1 1 0 1 0 1 2 3 2 2 1 1 2 2 2 3 3 3 4
3 4 4 3 3 3 2 1 1 1 1 1 1 2 2 3 3 2 3 2 2 2 2 2 2 2 1 1 1 1 0 2 2 2 1 1 2 2 2 2 3 3 4
4 3 3 3 2 2 2 2 2 1 2 2 2 2 3 3 3 3 2 2 2 2 2 2 2 2 2 2 1 1 2 2 2 3 2 2 2 2 2 2 3 3 4
3 3 3 2 2 2 2 3 3 2 2 2 2 2 2 2 2 3 2 2 2 2 2 2 2 2 3 3 2 2 1 2 2 3 4 3 3 3 2 3 2 2 3
2 2 1 1 2 2 2 3 3 3 3 2 2 3 3 2 2 3 2 2 3 2 2 3 3 3 3 3 3 3 3 3 3 3 4 4 4 3 3 2 2 1 2
Wind_Direction
278 304 55 71 68 63 56 53 50 50 55 59 60 59 59 59 61 63 62 59 52 50 52 56 65 64 65 66 65 66 66 64 64 69 72 71 74 77 79 80 79 78 83
200 281 85 75 68 66 62 55 51 49 49 54 58 58 59 60 56 55 59 57 53 52 49 49 63 65 65 66 63 62 65 61 63 64 63 66 68 77 80 82 85 85 86
84 70 91 78 70 64 60 56 50 50 46 44 52 55 58 58 52 51 53 54 55 52 48 49 53 62 64 64 62 62 60 57 59 61 57 52 52 70 75 75 81 90 96
76 67 71 81 72 69 61 56 49 46 44 39 40 52 56 56 54 52 50 49 48 49 50 50 48 59 60 59 58 61 61 57 52 46 43 36 31 51 70 72 76 82 93
66 63 66 76 73 67 60 52 47 40 39 36 32 39 48 53 53 52 49 46 43 41 41 46 45 55 58 53 52 56 57 55 47 38 27 17 11 24 63 74 78 68 54
71 65 67 69 65 62 54 45 40 36 38 35 29 33 38 40 43 53 49 42 40 36 34 35 38 43 57 50 53 51 46 44 38 33 20 3 344 359 53 66 84 74 59
99 69 68 70 59 52 43 34 30 35 34 31 26 28 36 35 37 53 46 37 34 36 34 27 21 26 40 49 48 44 37 36 40 30 11 351 326 332 2 8 80 89 84
104 71 67 71 58 47 37 32 25 19 25 27 25 26 27 40 48 43 38 31 32 36 27 18 10 9 27 42 42 41 35 33 31 15 360 341 318 309 306 301 281 273 341
79 68 48 57 56 41 28 21 19 19 16 14 23 26 22 33 38 24 6 16 26 24 17 13 5 351 15 36 35 34 35 29 31 14 354 341 323 310 308 315 303 272 269
45 43 38 44 45 37 24 16 13 15 15 15 22 26 23 24 30 21 6 1 10 13 5 0 353 350 356 27 24 25 30 36 25 6 351 335 325 309 310 321 314 282 289
19 15 18 27 35 39 32 18 15 12 11 13 21 24 19 16 24 24 6 355 354 356 354 349 346 349 6 19 19 18 27 28 2 352 331 323 318 310 308 315 335 303 287
295 308 355 358 6 34 30 22 19 17 14 12 17 22 21 17 19 23 7 3 355 357 345 341 341 351 13 18 15 24 22 3 358 336 316 318 310 299 300 303 316 315 285
245 276 292 314 337 18 20 17 16 16 16 12 14 14 16 21 20 23 28 8 1 4 7 355 352 357 17 28 22 11 6 3 341 318 312 311 311 303 295 297 300 307 294
257 268 276 283 299 322 355 350 3 12 16 7 356 354 21 19 5 17 28 13 13 6 8 13 5 354 358 360 8 12 352 340 323 311 307 311 313 303 298 296 292 293 299
248 263 264 260 248 256 287 310 345 353 343 320 334 324 326 343 298 346 9 13 4 351 0 10 8 356 337 344 353 343 310 306 305 307 307 308 310 306 300 300 293 290 293
244 256 257 246 244 254 247 256 281 296 299 303 295 286 283 285 269 300 329 350 351 342 340 337 328 323 302 310 293 302 292 298 305 304 304 311 313 309 302 300 297 294 293
241 252 255 243 243 255 264 251 272 271 275 286 280 281 281 279 271 267 274 301 326 324 350 15 4 4 324 331 302 297 293 286 292 299 306 315 317 315 310 306 298 296 295
238 248 255 256 240 245 249 248 252 255 254 266 273 276 273 268 261 246 266 290 310 325 22 46 298 339 331 330 312 301 296 293 284 281 294 321 333 331 323 318 310 297 295
231 234 248 246 236 243 246 251 250 245 241 260 269 272 270 261 246 219 260 290 305 343 333 278 352 4 305 320 311 299 298 292 287 288 284 297 315 328 333 328 322 309 300
237 230 235 249 242 238 230 341 299 284 267 263 261 269 270 259 245 217 251 288 303 277 283 256 244 341 274 294 316 314 304 292 287 283 279 300 326 331 339 334 335 326 316
250 246 242 252 228 187 175 214 273 282 279 273 273 265 261 260 251 223 258 263 261 246 256 241 204 138 9 1 1 332 323 296 277 276 281 290 305 322 336 335 331 329 321
240 245 242 241 228 209 210 212 231 249 264 261 275 274 266 258 247 237 236 247 245 238 260 235 197 168 266 346 2 333 331 329 329 294 288 276 286 310 315 317 319 321 318
257 249 249 242 232 219 208 169 48 32 349 328 318 298 297 283 266 249 243 242 241 219 230 238 215 188 217 301 300 200 204 270 310 303 287 282 291 289 284 304 317 318 317
257 256 249 237 227 221 188 185 188 224 252 254 265 272 295 286 275 262 255 248 241 230 231 239 229 216 198 229 282 265 239 225 261 305 300 296 299 289 281 293 307 311 314
260 254 250 247 238 226 202 205 207 241 254 274 279 283 288 295 285 271 260 252 246 240 234 233 233 224 210 210 222 239 252 254 236 243 281 298 304 284 279 270 274 308 319
293 280 259 244 249 230 219 220 218 231 250 265 275 268 276 285 287 276 263 251 250 243 235 232 229 228 226 221 223 225 227 228 229 236 262 285 290 284 277 272 262 296 323
Height
1515 1516 1517 1517 1518 1518 1518 1518 1517 1517 1517 1517 1517 1517 1517 1517 1517 1517 1517 1517 1517 1517 1517 1518 1518 1518 1518 1518 1518 1519 1519 1519 1519 1520 1520 1520 1520 1520 1520 1520 1520 1520 1520
1515 1515 1516 1517 1517 1517 1517 1517 1517 1517 1517 1517 1517 1516 1516 1516 1516 1516 1516 1516 1516 1517 1517 1517 1517 1518 1518 1518 1518 1518 1519 1519 1519 1519 1520 1520 1520 1520 1520 1520 1520 1520 1520
1514 1515 1516 1516 1517 1517 1517 1517 1517 1516 1516 1516 1516 1516 1516 1516 1516 1516 1516 1516 1516 1516 1516 1516 1517 1517 1517 1517 1518 1518 1518 1518 1519 1519 1519 1519 1520 1520 1520 1520 1520 1520 1520
1514 1515 1515 1516 1516 1516 1516 1516 1516 1516 1515 1515 1515 1515 1515 1515 1515 1515 1515 1515 1515 1515 1515 1515 1515 1516 1516 1517 1517 1517 1517 1518 1518 1518 1519 1519 1519 1519 1519 1519 1520 1520 1519
1514 1515 1515 1515 1516 1515 1515 1515 1515 1515 1515 1514 1514 1514 1514 1514 1514 1514 1514 1514 1514 1514 1515 1515 1515 1515 1515 1516 1516 1516 1516 1517 1517 1517 1518 1518 1518 1519 1519 1519 1519 1519 1519
1514 1514 1515 1515 1515 1515 1514 1514 1514 1514 1514 1513 1513 1513 1513 1513 1513 1513 1513 1513 1513 1513 1513 1513 1514 1514 1514 1515 1515 1515 1515 1516 1516 1516 1517 1517 1517 1518 1518 1518 1518 1518 1518
1513 1513 1514 1514 1514 1514 1513 1513 1513 1513 1512 1512 1512 1512 1512 1512 1512 1512 1512 1512 1512 1512 1512 1512 1512 1513 1513 1513 1513 1514 1514 1514 1514 1515 1515 1516 1516 1516 1517 1517 1517 1517 1517
1512 1512 1512 1512 1513 1512 1512 1512 1511 1511 1511 1511 1510 1510 1510 1510 1510 1510 1510 1510 1510 1510 1510 1510 1511 1511 1511 1511 1512 1512 1512 1513 1513 1513 1514 1514 1515 1515 1515 1515 1516 1515 1516
1511 1511 1511 1511 1511 1511 1511 1511 1510 1510 1510 1509 1509 1509 1509 1509 1509 1509 1509 1508 1508 1508 1508 1509 1509 1509 1510 1510 1510 1510 1511 1511 1511 1512 1512 1512 1513 1513 1514 1514 1514 1514 1514
1509 1510 1509 1509 1509 1509 1509 1509 1509 1508 1508 1508 1507 1507 1507 1507 1507 1507 1507 1507 1506 1506 1506 1507 1507 1507 1508 1508 1508 1509 1509 1509 1510 1510 1510 1511 1511 1511 1511 1512 1512 1512 1512
1508 1508 1507 1507 1507 1507 1507 1507 1507 1507 1506 1506 1505 1505 1505 1505 1505 1505 1505 1504 1504 1504 1504 1504 1505 1505 1505 1506 1506 1506 1507 1507 1507 1508 1508 1509 1509 1509 1509 1509 1509 1510 1510
1505 1506 1506 1505 1505 1505 1505 1505 1505 1504 1504 1504 1503 1503 1503 1503 1502 1502 1502 1502 1502 1502 1502 1502 1502 1502 1503 1503 1504 1504 1504 1505 1505 1505 1506 1506 1506 1506 1507 1507 1507 1507 1507
1503 1503 1503 1503 1503 1502 1502 1502 1502 1502 1502 1501 1501 1501 1501 1500 1500 1499 1500 1500 1500 1500 1500 1500 1500 1500 1500 1501 1501 1502 1502 1502 1502 1503 1503 1503 1504 1504 1504 1504 1504 1504 1505
1501 1501 1501 1501 1500 1500 1500 1500 1500 1499 1499 1499 1498 1498 1498 1498 1497 1497 1496 1496 1497 1497 1497 1497 1497 1498 1497 1498 1499 1499 1499 1500 1500 1500 1500 1501 1501 1501 1501 1501 1501 1502 1502
1499 1499 1498 1498 1498 1497 1497 1497 1497 1496 1496 1496 1495 1495 1495 1495 1495 1494 1493 1493 1494 1494 1494 1494 1494 1495 1495 1495 1496 1496 1496 1497 1497 1497 1497 1498 1498 1498 1498 1498 1498 1498 1499
1496 1496 1496 1495 1495 1495 1494 1494 1494 1494 1493 1493 1493 1493 1492 1492 1492 1491 1491 1491 1491 1491 1491 1491 1492 1492 1492 1492 1493 1493 1493 1493 1494 1494 1494 1495 1495 1495 1495 1495 1495 1495 1495
1494 1494 1493 1493 1492 1492 1491 1491 1491 1490 1490 1490 1490 1490 1489 1489 1489 1488 1488 1487 1487 1488 1488 1488 1489 1489 1489 1489 1489 1490 1490 1490 1490 1491 1491 1491 1491 1491 1491 1491 1491 1491 1492
1491 1491 1490 1490 1489 1489 1488 1488 1488 1487 1487 1487 1487 1487 1486 1486 1486 1485 1485 1484 1484 1485 1485 1485 1485 1485 1486 1486 1486 1486 1486 1486 1487 1487 1488 1488 1488 1488 1488 1488 1488 1488 1488
1488 1487 1487 1486 1485 1485 1485 1485 1484 1484 1484 1484 1484 1484 1483 1483 1483 1482 1481 1481 1481 1482 1482 1482 1482 1482 1482 1482 1482 1483 1483 1483 1483 1484 1484 1485 1485 1484 1484 1484 1484 1484 1484
1485 1484 1483 1483 1482 1482 1482 1481 1481 1481 1481 1480 1480 1480 1480 1480 1479 1479 1479 1479 1479 1478 1478 1478 1479 1479 1479 1479 1479 1479 1479 1479 1480 1480 1480 1481 1481 1481 1481 1481 1481 1480 1480
1481 1481 1480 1479 1479 1478 1478 1477 1477 1477 1477 1477 1477 1477 1477 1477 1476 1476 1476 1476 1476 1476 1475 1475 1475 1475 1476 1476 1476 1475 1475 1476 1476 1476 1477 1477 1477 1477 1477 1477 1477 1476 1476
1477 1477 1477 1476 1475 1475 1475 1475 1474 1474 1473 1473 1474 1474 1474 1473 1473 1473 1473 1473 1472 1472 1472 1472 1472 1472 1473 1474 1474 1473 1472 1473 1472 1473 1473 1473 1473 1474 1474 1474 1473 1473 1472
1474 1473 1473 1473 1472 1472 1472 1472 1471 1470 1470 1470 1470 1470 1470 1470 1470 1471 1470 1470 1469 1469 1469 1470 1470 1469 1470 1471 1472 1472 1472 1470 1469 1469 1469 1469 1470 1470 1470 1470 1470 1469 1469
1471 1471 1470 1470 1469 1469 1469 1468 1468 1467 1466 1467 1467 1467 1467 1467 1467 1467 1467 1467 1466 1466 1466 1466 1467 1467 1468 1468 1469 1469 1470 1469 1469 1466 1466 1466 1466 1466 1466 1466 1466 1465 1465
1468 1468 1467 1467 1466 1466 1466 1466 1465 1464 1464 1464 1464 1464 1464 1464 1464 1464 1464 1463 1463 1463 1463 1463 1463 1464 1465 1465 1466 1466 1467 1467 1466 1465 1462 1462 1462 1462 1462 1462 1462 1462 1461
1465 1465 1464 1464 1463 1463 1463 1463 1462 1462 1461 1461 1461 1460 1461 1461 1461 1461 1460 1460 1460 1460 1460 1460 1460 1461 1461 1462 1462 1463 1463 1463 1462 1462 1460 1458 1458 1458 1459 1458 1458 1458 1458